Time (yr/mo/day/hr) Wind Speed at 50 metres (Glencore Tower; km/hr) Wind Direction at 50 metres (Glencore Tower; degrees) Temperature (oC) SO2 Dispersion Conditions Mixing Height (m)
2021 04 17 01 9 352 3 Stable 246
2021 04 17 02 14 340 1 Slightly stable 615
2021 04 17 03 13 348 1 Slightly stable 545
2021 04 17 04 12 348 0 Slightly stable 488
2021 04 17 05 12 355 0 Slightly stable 461
2021 04 17 06 12 2 0 Slightly stable 470
2021 04 17 07 12 6 1 Neutral 487
2021 04 17 08 11 6 2 Slightly unstable 798
2021 04 17 09 10 5 4 Slightly unstable 669
2021 04 17 10 9 6 6 Moderately unstable 708
2021 04 17 11 8 7 7 Moderately unstable 755
2021 04 17 12 7 5 9 Moderately unstable 947
2021 04 17 13 6 1 10 Moderately unstable 1194
2021 04 17 14 6 350 11 Moderately unstable 1354
2021 04 17 15 6 346 11 Moderately unstable 1382
2021 04 17 16 4 356 11 Moderately unstable 1405
2021 04 17 17 6 342 11 Moderately unstable 1408
2021 04 17 18 4 13 10 Moderately unstable 289
2021 04 17 19 4 311 10 Slightly unstable 55
2021 04 17 20 7 326 8 Neutral 277
2021 04 17 21 7 337 8 Slightly stable 164
2021 04 17 22 9 351 8 Slightly stable 289
2021 04 17 23 9 20 6 Slightly stable 304
2021 04 18 00 10 25 5 Stable 336
2021 04 18 01 10 27 5 Slightly stable 388